[[{"header":{"parameterUnit":"m.s-1","parameterCategory":1,"la1":30.2991,"la2":30.254,"lo1":-89.0895,"lo2":-89.0444,"dy":0.0017,"dx":0.0017,"nx":28,"ny":28,"refTime":"2023-11-17T09:00:00:Z","depth":0,"parameterNumber":2,"parameterNumberName":"U-component_of_WINDS"},"data":[0,0,0,0,0,0,0,0,0,0,0,0,0,0,0,0,0,0,0,0,0,0,0,0,0,0,0,0,0,0,0,0,0,0,0,0,0,0,0,0,0,0,0,0,0,0,0,0,0,0,0,0,0,0,0,0,0,0,1.4767,1.4767,0,1.4799,1.48,1.48,1.4764,1.4762,1.4761,1.476,1.4792,1.4794,1.4797,0,0,0,0,0,0,0,0,0,0,0,0,0,1.4676,1.4677,1.4767,1.4767,1.4768,1.4799,1.48,1.48,1.4764,1.4762,1.4761,1.4759,1.4792,1.4794,1.4797,0,0,0,0,0,0,0,0,0,0,0,0,0,1.4712,1.4678,1.4767,1.4754,1.4753,1.4799,1.48,1.48,1.4764,1.4762,1.476,1.4758,1.4791,1.4794,1.4797,1.4858,0,0,1.4807,1.4808,0,0,0,0,0,0,0,0,1.471,1.4716,1.4755,1.4755,1.4754,1.4775,1.4779,1.482,1.4765,1.476,1.476,1.4757,1.4788,1.4792,1.4802,1.486,1.4861,1.4807,1.4809,1.4811,1.4812,0,0,0,0,0,0,0,1.4708,1.4714,1.478,1.4756,1.4755,1.4746,1.4749,1.4787,1.4785,1.476,1.4758,1.4762,1.4788,1.4799,1.4803,1.4862,1.4807,1.481,1.4812,1.4813,1.4973,1.4975,0,0,0,0,0,0,1.4707,1.4712,1.4779,1.4781,1.4726,1.475,1.4753,1.477,1.4785,1.4785,1.4764,1.476,1.4795,1.4799,1.4804,1.4877,1.4811,1.4814,1.4815,1.497,1.4973,1.4976,0,0,0,0,0,0,1.4705,1.4713,1.4777,1.4746,1.4753,1.4753,1.4773,1.4772,1.4784,1.4787,1.4787,1.4776,1.4793,1.4799,1.4845,1.4878,1.4815,1.4818,1.4968,1.4971,1.4974,1.5024,0,0,0,0,0,0,1.4702,1.4712,1.4735,1.4747,1.4755,1.4818,1.4775,1.4774,1.4789,1.4785,1.4799,1.4799,1.4792,1.4841,1.4849,1.4881,1.482,1.4965,1.4969,1.4973,1.502,1.5029,1.5037,0,0,0,0,0,1.4699,1.4748,1.4737,1.4745,1.4784,1.482,1.4825,1.4816,1.4792,1.4815,1.4818,1.4798,1.4873,1.4846,1.4854,1.4888,1.4963,1.4968,1.4973,1.5016,1.5027,1.5037,0,0,0,0,0,0,1.474,1.4749,1.4737,1.479,1.4805,1.4814,1.4843,1.4828,1.485,1.4845,1.4833,1.4837,1.4886,1.4892,1.4861,1.4949,1.4914,1.4921,1.4944,1.4954,1.4963,1.4961,1.4823,0,0,0,0,0,1.4755,1.4784,1.479,1.4837,1.4845,1.4843,1.4858,1.4851,1.4865,1.4871,1.4877,1.4892,1.4919,1.4937,1.4962,1.502,1.5023,1.5048,1.5057,1.5064,1.507,1.5103,1.5115,1.4993,1.4993,1.4992,0,0,1.4786,1.4795,1.4814,1.4845,1.4855,1.4886,1.4848,1.4882,1.4905,1.4876,1.492,1.4925,1.4942,1.4995,1.5018,1.5001,1.5105,1.507,1.5076,1.5079,1.511,1.5121,1.5132,1.4996,1.4995,1.4995,0,0,1.486,1.4869,1.4909,1.4921,1.4937,1.4936,1.4946,1.4958,1.496,1.5005,1.4985,1.5012,1.5058,1.5071,1.5083,1.5164,1.5147,1.5172,1.5217,1.5249,1.5259,1.5268,1.5297,1.5308,1.5178,1.5178,1.5178,0,1.4897,1.4942,1.4932,1.4968,1.4983,1.4959,1.5,1.5012,1.5036,1.5047,1.5027,1.5086,1.5095,1.5152,1.5171,1.5182,1.5194,1.517,1.5258,1.5267,1.5275,1.5303,1.5314,1.5181,1.5181,1.5181,1.518,0,1.4988,1.5019,1.505,1.5075,1.5093,1.5131,1.5128,1.5148,1.5139,1.514,1.5186,1.5196,1.5224,1.5236,1.5227,1.5292,1.5281,1.526,1.5225,1.529,1.5316,1.5327,1.5186,1.5185,1.5184,1.5183,0,0,1.5086,1.5106,1.5118,1.5129,1.5146,1.5171,1.5209,1.5236,1.5254,1.5271,1.5304,1.5344,1.5325,1.534,1.5332,1.5361,1.5425,1.5336,1.5336,1.5353,1.5499,1.5515,1.5528,1.5414,1.5416,1.5418,1.5498,0,1.5161,1.5227,1.522,1.5283,1.5313,1.5291,1.5325,1.5339,1.5342,1.5368,1.537,1.54,1.5372,1.5381,1.5408,1.5412,1.5454,1.5406,1.5445,1.5446,1.5442,1.5541,1.5558,1.5633,1.5508,1.551,1.5511,0,1.5256,1.5278,1.5345,1.5359,1.5371,1.5401,1.5426,1.5451,1.5468,1.5468,1.5485,1.5473,1.5512,1.5476,1.553,1.5497,1.5513,1.5517,1.552,1.5523,1.5483,1.5549,1.5657,1.5669,1.5527,1.5526,1.5525,0,1.5323,1.5369,1.5415,1.5426,1.5443,1.5465,1.5473,1.5488,1.5505,1.5527,1.5539,1.5565,1.558,1.5601,1.5596,1.557,1.5652,1.5615,1.5654,1.5654,1.5672,1.5671,1.5786,1.5681,1.5681,1.5681,1.5681,0,1.5408,1.5449,1.5446,1.5474,1.5521,1.5513,1.5559,1.5564,1.5578,1.5608,1.5591,1.5619,1.5611,1.5639,1.5636,1.5683,1.5689,1.5691,1.5689,1.5693,1.5693,1.5703,1.5698,1.5684,1.5683,1.5683,1.5682,0,1.549,1.549,1.5539,1.5552,1.5556,1.559,1.5601,1.5628,1.563,1.5668,1.5676,1.5678,1.5711,1.5709,1.5745,1.5743,1.5801,1.5793,1.5795,1.5794,1.5833,1.583,1.5959,1.5976,1.586,1.5861,1.5862,0,1.5544,1.5576,1.5593,1.5612,1.5622,1.5652,1.567,1.5664,1.5683,1.5706,1.5731,1.5762,1.5786,1.5839,1.5844,1.5873,1.5866,1.5909,1.587,1.5873,1.5868,1.5866,1.587,1.5917,1.5918,1.5919,1.592,0,1.5641,1.564,1.5666,1.5694,1.5716,1.5736,1.5756,1.5772,1.5768,1.5791,1.5824,1.5843,1.5881,1.5912,1.594,1.5949,1.5934,1.5932,1.5943,1.5947,1.5947,1.5949,1.5817,1.593,1.5929,1.5928,1.5927,1.5927,1.5712,1.574,1.5756,1.5787,1.5801,1.582,1.5846,1.5852,1.5879,1.591,1.5905,1.5942,1.596,1.5995,1.6007,1.6036,1.6021,1.6036,1.604,1.6044,1.6049,1.5942,1.6041,1.6041,1.6041,1.604,1.604,0,1.5808,1.5819,1.5847,1.5875,1.5899,1.5884,1.5905,1.5926,1.596,1.5977,1.6002,1.6041,1.6072,1.608,1.611,1.6133,1.6127,1.6141,1.6139,1.6142,1.6061,1.6049,1.6145,1.6145,1.6145,1.6145,1.6145,1.6145,1.5862,1.5908,1.5909,1.5963,1.5973,1.601,1.6024,1.6041,1.6055,1.61,1.6126,1.6131,1.6145,1.6176,1.6204,1.6206,1.6218,1.6235,1.6234,1.6158,1.6147,1.6137,1.6126,1.6237,1.6237,1.6313,1.6313,1.6314]},{"header":{"parameterUnit":"m.s-1","parameterCategory":1,"la1":30.2991,"la2":30.254,"lo1":-89.0895,"lo2":-89.0444,"dy":0.0017,"dx":0.0017,"nx":28,"ny":28,"refTime":"2023-11-17T09:00:00:Z","depth":0,"parameterNumber":3,"parameterNumberName":"V-component_of_WINDS"},"data":[0,0,0,0,0,0,0,0,0,0,0,0,0,0,0,0,0,0,0,0,0,0,0,0,0,0,0,0,0,0,0,0,0,0,0,0,0,0,0,0,0,0,0,0,0,0,0,0,0,0,0,0,0,0,0,0,0,0,-0.9169,-0.9171,0,-0.9304,-0.9305,-0.9307,-0.9377,-0.9377,-0.9377,-0.9377,-0.9517,-0.9521,-0.9524,0,0,0,0,0,0,0,0,0,0,0,0,0,-0.8977,-0.898,-0.9169,-0.9171,-0.9173,-0.9303,-0.9305,-0.9307,-0.9377,-0.9377,-0.9377,-0.9377,-0.9516,-0.952,-0.9524,0,0,0,0,0,0,0,0,0,0,0,0,0,-0.9081,-0.8981,-0.9169,-0.9223,-0.9229,-0.9303,-0.9305,-0.9308,-0.9377,-0.9377,-0.9377,-0.9378,-0.9514,-0.952,-0.9525,-0.9555,0,0,-0.9542,-0.9544,0,0,0,0,0,0,0,0,-0.9075,-0.9088,-0.9214,-0.922,-0.9227,-0.9324,-0.9289,-0.9391,-0.9377,-0.9321,-0.9377,-0.9378,-0.9453,-0.9463,-0.9488,-0.9562,-0.9568,-0.9542,-0.9545,-0.9548,-0.9549,0,0,0,0,0,0,0,-0.9068,-0.9083,-0.9222,-0.9215,-0.9223,-0.9242,-0.9257,-0.9308,-0.9384,-0.9326,-0.9331,-0.9346,-0.9456,-0.9483,-0.9492,-0.957,-0.9542,-0.9547,-0.955,-0.9552,-0.9679,-0.9679,0,0,0,0,0,0,-0.9051,-0.9076,-0.9218,-0.9227,-0.915,-0.9245,-0.9262,-0.9292,-0.9384,-0.9398,-0.9346,-0.9349,-0.9473,-0.9486,-0.9497,-0.9541,-0.9548,-0.9553,-0.9556,-0.9678,-0.9679,-0.9679,0,0,0,0,0,0,-0.9047,-0.9063,-0.9213,-0.9153,-0.9173,-0.9249,-0.9282,-0.9295,-0.9321,-0.9399,-0.9413,-0.9359,-0.9474,-0.9489,-0.9541,-0.9546,-0.9555,-0.956,-0.9678,-0.9678,-0.9679,-0.9626,0,0,0,0,0,0,-0.9041,-0.9061,-0.9072,-0.9153,-0.9176,-0.9253,-0.9282,-0.9298,-0.933,-0.9336,-0.9415,-0.9428,-0.9475,-0.9532,-0.9546,-0.9554,-0.9564,-0.9678,-0.9678,-0.9679,-0.9628,-0.9624,-0.9622,0,0,0,0,0,-0.9034,-0.9052,-0.9073,-0.9089,-0.9192,-0.9253,-0.9267,-0.932,-0.933,-0.9343,-0.9394,-0.9426,-0.9543,-0.9537,-0.9553,-0.9563,-0.9678,-0.9678,-0.9679,-0.9629,-0.9625,-0.9622,0,0,0,0,0,0,-0.8971,-0.9064,-0.9087,-0.9132,-0.9184,-0.9265,-0.9282,-0.9314,-0.9365,-0.9367,-0.9432,-0.9449,-0.9495,-0.9534,-0.9526,-0.9598,-0.9614,-0.9618,-0.9571,-0.9568,-0.9565,-0.9555,-0.9569,0,0,0,0,0,-0.8962,-0.9004,-0.9083,-0.9114,-0.9139,-0.9206,-0.9235,-0.9272,-0.9329,-0.9351,-0.9405,-0.946,-0.951,-0.9541,-0.9591,-0.9634,-0.9653,-0.9648,-0.9645,-0.9642,-0.9645,-0.9673,-0.9672,-0.9679,-0.9679,-0.9679,0,0,-0.8945,-0.9001,-0.9023,-0.9103,-0.9148,-0.9191,-0.9224,-0.9267,-0.93,-0.9358,-0.941,-0.9452,-0.9517,-0.9565,-0.9589,-0.9599,-0.9647,-0.9643,-0.964,-0.9644,-0.9673,-0.9672,-0.9671,-0.968,-0.9679,-0.9679,0,0,-0.8935,-0.8981,-0.9013,-0.9057,-0.9125,-0.9169,-0.9177,-0.9254,-0.9284,-0.9337,-0.9382,-0.9422,-0.9506,-0.9551,-0.9585,-0.9595,-0.9627,-0.9609,-0.9593,-0.962,-0.9619,-0.9619,-0.9624,-0.9625,-0.9611,-0.9611,-0.9611,0,-0.8905,-0.897,-0.9026,-0.9067,-0.9102,-0.9156,-0.9191,-0.9231,-0.9312,-0.9335,-0.9345,-0.9453,-0.9501,-0.9561,-0.9563,-0.9588,-0.9601,-0.9601,-0.9615,-0.9615,-0.9616,-0.9621,-0.9623,-0.9609,-0.9609,-0.9609,-0.961,0,-0.8931,-0.8975,-0.8993,-0.9069,-0.9107,-0.9144,-0.9207,-0.9238,-0.9272,-0.9316,-0.9371,-0.9431,-0.9494,-0.9511,-0.9545,-0.9577,-0.9581,-0.9602,-0.962,-0.9612,-0.9618,-0.962,-0.9605,-0.9606,-0.9607,-0.9607,0,0,-0.8884,-0.8991,-0.8997,-0.9033,-0.9113,-0.9149,-0.919,-0.9252,-0.9278,-0.9332,-0.9369,-0.9439,-0.946,-0.9498,-0.9538,-0.9561,-0.9567,-0.9579,-0.9582,-0.9576,-0.9608,-0.9592,-0.9594,-0.9588,-0.9589,-0.9589,-0.9603,0,-0.8886,-0.8961,-0.9013,-0.9068,-0.9111,-0.9164,-0.92,-0.9254,-0.9296,-0.934,-0.9388,-0.9437,-0.946,-0.9484,-0.9509,-0.956,-0.9574,-0.956,-0.9625,-0.9626,-0.9607,-0.9597,-0.958,-0.959,-0.9606,-0.9606,-0.9606,0,-0.8898,-0.895,-0.9009,-0.9086,-0.9106,-0.9137,-0.9199,-0.924,-0.9302,-0.9332,-0.9376,-0.9417,-0.9464,-0.9477,-0.9544,-0.9533,-0.9563,-0.9593,-0.9595,-0.9603,-0.9616,-0.9606,-0.9594,-0.9596,-0.961,-0.961,-0.961,0,-0.8859,-0.8945,-0.8992,-0.9021,-0.9111,-0.9132,-0.9171,-0.9233,-0.9268,-0.9323,-0.9346,-0.9406,-0.9439,-0.9485,-0.9541,-0.9545,-0.9603,-0.962,-0.963,-0.9629,-0.964,-0.9639,-0.9633,-0.9658,-0.9658,-0.9658,-0.9657,0,-0.8857,-0.8891,-0.8976,-0.9005,-0.9046,-0.9107,-0.9146,-0.9189,-0.9245,-0.9284,-0.9334,-0.9371,-0.9442,-0.9488,-0.9532,-0.9582,-0.9596,-0.9623,-0.9634,-0.9619,-0.9616,-0.964,-0.9641,-0.9658,-0.9658,-0.9658,-0.9658,0,-0.882,-0.8878,-0.8933,-0.9014,-0.9036,-0.9062,-0.9133,-0.9164,-0.921,-0.9259,-0.9274,-0.9347,-0.9403,-0.9464,-0.9541,-0.9571,-0.9619,-0.9635,-0.9598,-0.9604,-0.9611,-0.961,-0.9622,-0.9627,-0.9646,-0.9646,-0.9646,0,-0.8815,-0.8843,-0.8927,-0.8957,-0.8994,-0.9041,-0.9077,-0.9139,-0.9175,-0.9249,-0.9271,-0.9332,-0.9383,-0.9471,-0.9531,-0.9591,-0.9609,-0.9609,-0.9618,-0.9603,-0.9611,-0.9609,-0.9613,-0.9606,-0.9606,-0.9605,-0.9605,0,-0.8799,-0.8827,-0.8876,-0.8936,-0.8978,-0.9028,-0.908,-0.9102,-0.9175,-0.9213,-0.9271,-0.931,-0.939,-0.9449,-0.9517,-0.9558,-0.9594,-0.9602,-0.9608,-0.9592,-0.957,-0.9583,-0.9591,-0.9601,-0.9602,-0.9602,-0.9602,-0.9602,-0.878,-0.8807,-0.8871,-0.8925,-0.8971,-0.9019,-0.9053,-0.9104,-0.9153,-0.9222,-0.9256,-0.9314,-0.9379,-0.9473,-0.9513,-0.9561,-0.9572,-0.958,-0.9582,-0.9583,-0.958,-0.9562,-0.9573,-0.9574,-0.9574,-0.9574,-0.9574,0,-0.8768,-0.8812,-0.8861,-0.8933,-0.8975,-0.9005,-0.9065,-0.91,-0.915,-0.9207,-0.9257,-0.9325,-0.9383,-0.9449,-0.9512,-0.9538,-0.9556,-0.9552,-0.9551,-0.9561,-0.9566,-0.9555,-0.9536,-0.9536,-0.9536,-0.9536,-0.9536,-0.9536,-0.8767,-0.8816,-0.8852,-0.8925,-0.897,-0.9027,-0.9059,-0.9105,-0.915,-0.9224,-0.9272,-0.9315,-0.9376,-0.9444,-0.95,-0.9518,-0.9539,-0.9531,-0.9553,-0.9557,-0.956,-0.9563,-0.9553,-0.9535,-0.9535,-0.9545,-0.9545,-0.9545]}]]